{"data":{"norad_id":63861,"epoch":"2026-09-19T18:39:01.121184Z","epoch_age_seconds":209512,"freshness":"STALE","line1":"1 63861U 25093AB  26262.77709631  .00017793  00000+0  65430-3 0  9998","line2":"2 63861  43.0020  61.9210 0001721 268.4778  91.5877 15.27591419 77439","mean_motion":15.27591419,"eccentricity":0.0001721,"inclination_deg":43.002,"raan_deg":61.921,"arg_perigee_deg":268.4778,"mean_anomaly_deg":91.5877,"bstar":0.0006543,"rev_number":7743,"period_min":94.266044054022,"perigee_km":481.83409941607,"apogee_km":484.1957079013,"semimajor_km":6861.1519036587,"source":"CELESTRAK","updated_at":"2026-09-21T09:00:35.136380Z"}}